RH
6 13 16 19 25 33 30 24 16 22 22 32 26 29 40 41 43 44 28 34 34 33 14 10 15 24 32 39 41 41 46 49 50 51 35 29 27 26 24 22 22 23 28 34 40 42 46 51 55
8 18 17 18 31 33 27 19 22 18 26 30 33 38 42 51 35 34 36 35 34 34 17 10 11 22 32 38 41 45 48 50 52 53 42 32 30 30 28 27 25 25 26 31 37 42 44 50 54
15 17 17 28 36 31 23 16 22 17 22 22 40 43 48 51 46 33 37 35 39 34 19 12 11 16 26 31 36 40 44 47 53 54 50 36 34 32 31 31 29 28 28 32 38 41 46 56 63
16 17 18 24 23 19 17 14 21 20 29 30 38 54 49 51 42 40 35 34 37 38 21 15 14 15 20 26 29 31 35 42 51 56 54 40 37 34 34 33 32 32 31 32 38 46 49 56 62
17 18 21 22 17 14 10 10 17 23 30 44 44 56 53 44 36 33 34 39 39 44 25 21 20 18 18 20 23 28 33 40 51 55 55 45 37 36 35 36 37 37 38 39 39 43 50 53 58
15 13 19 17 13 12 11 11 21 45 48 47 50 51 55 44 35 38 39 43 48 36 28 27 28 26 26 27 28 30 34 39 47 49 53 44 37 37 38 39 40 41 43 46 47 47 48 48 50
14 17 16 14 12 12 11 9 12 12 14 27 41 44 52 45 39 37 40 46 50 50 25 29 33 36 35 35 35 36 39 43 44 44 46 42 38 39 41 42 42 42 45 47 49 52 53 58 57
11 15 11 11 12 13 10 9 9 9 10 26 34 43 52 49 36 39 45 47 54 59 58 44 36 40 41 42 42 43 44 46 47 47 47 44 43 45 47 49 51 51 51 51 57 56 63 58 61
10 15 15 10 14 14 9 10 9 9 9 11 23 31 32 46 41 36 40 47 53 56 55 53 53 50 44 45 46 48 49 51 52 54 53 50 51 54 57 62 62 60 60 56 48 58 50 48 55
12 16 12 10 12 11 10 10 9 9 9 23 25 24 23 30 36 37 39 38 39 42 44 46 39 40 45 48 49 50 52 54 56 57 56 57 58 62 66 70 80 73 63 65 61 46 54 49 52
12 14 12 11 11 9 9 9 8 8 9 24 25 27 29 33 36 33 40 34 33 38 46 47 43 35 43 46 50 52 55 56 59 61 64 65 66 69 70 75 88 69 65 69 72 68 59 60 68
12 11 10 11 10 10 11 10 9 9 8 16 16 20 26 34 38 34 48 45 40 44 50 53 50 36 38 46 50 53 58 59 61 64 67 72 73 71 70 76 68 66 68 72 73 69 65 67 72
13 12 12 12 11 10 10 11 11 10 9 10 11 13 13 13 17 20 30 30 42 46 50 56 57 53 42 48 54 72 73 63 67 69 75 80 74 73 75 80 81 82 79 75 76 73 70 70 78
16 18 18 16 14 13 12 12 12 10 9 11 12 11 13 16 16 16 18 22 30 39 48 58 60 61 54 50 66 78 77 80 79 80 80 77 84 88 88 83 84 85 83 77 72 80 92 93 79
20 17 20 17 14 15 13 16 15 11 9 10 13 13 16 17 17 18 18 22 33 36 49 56 64 68 60 65 63 78 79 81 88 88 90 93 92 87 84 82 86 82 79 58 68 79 88 94 82
22 23 24 17 16 15 14 22 15 10 10 11 12 15 17 18 18 20 20 21 29 48 56 57 67 73 68 70 70 80 81 81 90 92 96 94 88 87 87 88 88 77 58 51 65 73 70 83 85
30 30 29 24 18 16 16 19 15 11 12 12 12 15 18 21 21 22 21 22 25 42 57 62 68 76 74 80 85 88 84 90 96 98 98 94 92 89 86 89 70 59 62 48 58 87 89 82 81
31 33 28 27 18 19 20 19 17 14 13 13 14 18 24 26 27 28 24 24 29 36 55 62 67 73 77 74 83 90 91 94 94 95 95 94 90 86 88 71 64 58 58 75 85 66 63 80 86
25 28 27 24 20 18 22 19 18 17 16 18 18 20 30 29 34 38 27 26 28 38 51 66 69 75 78 79 80 86 86 90 94 94 99 91 87 86 70 67 65 54 52 51 47 50 66 68 80
33 36 35 26 23 22 23 24 22 21 20 18 18 20 28 39 50 43 33 31 31 42 57 71 76 78 81 86 90 96 93 85 92 96 99 91 85 70 71 73 67 59 55 56 55 52 59 58 68
34 35 32 29 25 24 25 32 28 23 20 17 19 18 27 28 37 42 40 41 32 52 66 79 85 90 90 100 100 96 88 83 89 98 94 86 73 75 77 79 80 73 62 55 55 60 68 70 68
33 29 27 31 31 42 28 42 34 28 27 25 21 22 28 37 41 40 43 38 36 68 90 94 98 100 100 100 94 83 84 82 89 95 89 76 74 76 74 70 66 61 56 58 68 69 65 75 77
28 28 33 35 42 43 41 48 46 29 31 27 29 28 33 36 38 42 40 32 29 60 96 98 100 100 100 91 87 90 79 88 94 94 80 74 73 70 66 66 67 68 68 58 48 41 41 44 48
26 38 40 42 47 64 46 41 30 36 29 28 31 35 40 49 46 44 36 26 28 34 56 98 100 99 91 90 85 83 84 93 94 82 77 72 67 64 64 65 61 54 49 40 33 31 33 37 39
36 48 69 64 72 61 40 46 32 29 27 29 34 49 48 48 51 43 32 30 29 33 51 85 100 91 92 85 88 87 88 87 84 75 73 58 57 55 54 49 48 46 34 29 26 28 26 38 44
35 38 67 73 80 48 41 56 37 28 22 22 24 29 44 53 51 40 31 27 26 30 45 86 99 96 90 90 90 88 88 86 83 70 51 41 41 46 43 45 40 40 36 25 28 33 33 34 41
44 46 36 53 58 81 60 41 29 30 34 33 32 42 56 59 55 42 32 27 28 33 34 44 82 88 87 92 88 88 92 91 84 65 57 58 59 61 58 55 53 58 47 34 32 34 32 33 40
34 36 53 68 68 69 55 53 39 40 40 43 48 49 57 61 56 45 36 32 33 33 35 40 49 64 90 92 89 90 91 86 76 61 62 65 66 65 68 64 63 62 52 40 35 49 64 61 56
47 47 53 49 68 62 64 58 46 39 48 50 47 44 55 55 53 48 45 38 34 38 48 51 57 73 79 82 82 81 85 87 71 69 72 74 74 76 77 75 77 78 77 68 65 64 72 83 84
32 37 40 57 69 62 67 40 36 38 43 42 41 40 53 57 60 50 46 44 53 47 57 53 57 67 71 73 75 72 84 73 72 74 74 76 78 77 74 82 89 93 94 97 99 90 82 93 96
Wind_Speed
8 4 6 4 4 5 4 6 4 5 5 12 22 20 10 7 3 4 16 19 13 17 19 20 20 20 19 18 17 16 13 11 10 8 7 7 7 7 8 7 7 7 8 9 9 9 9 9 10
4 3 4 2 4 3 5 5 6 3 16 30 23 17 10 4 10 12 17 15 15 15 17 19 19 19 19 18 16 15 13 12 11 9 7 6 6 6 6 6 5 6 6 7 8 9 9 9 9
3 4 2 4 3 5 3 4 6 8 21 9 8 13 5 3 10 13 11 15 17 15 18 19 19 18 18 17 16 15 13 12 11 9 7 6 5 5 4 3 3 4 4 5 6 7 8 10 8
5 1 1 3 3 6 4 5 6 8 11 12 20 8 7 2 11 11 15 15 13 13 19 20 19 18 17 16 16 15 13 12 11 10 8 6 5 4 3 2 1 1 2 3 3 4 5 6 7
8 1 3 2 4 7 2 6 7 4 5 9 10 5 5 9 7 13 16 15 12 13 21 20 18 17 17 16 15 15 14 13 11 10 8 7 5 3 2 1 1 1 1 1 1 1 1 2 2
2 1 4 1 4 6 3 10 22 19 17 15 13 10 4 8 11 14 13 12 9 10 22 20 19 17 16 16 15 15 14 13 12 11 10 7 6 4 3 2 2 2 2 2 2 2 2 3 4
4 4 4 3 5 5 2 3 5 7 7 6 16 5 11 11 22 15 12 12 11 10 20 20 20 19 18 16 16 15 14 13 12 11 10 8 7 5 4 3 4 4 4 4 4 4 5 6 7
3 4 1 4 3 7 5 3 7 5 6 14 15 6 7 18 20 16 15 13 11 11 14 15 19 20 19 18 17 16 15 14 12 12 10 9 7 6 5 5 5 5 5 5 4 5 6 5 8
4 4 1 4 4 3 0 2 2 3 6 6 7 18 17 21 18 20 18 16 15 14 13 13 15 21 22 20 19 17 16 14 14 13 11 10 8 8 6 5 6 7 8 9 10 7 7 12 12
4 4 8 5 3 1 2 3 2 0 2 5 14 19 18 19 18 18 19 18 17 17 17 14 15 19 24 23 20 18 17 16 15 14 12 10 10 9 9 8 7 11 11 12 12 11 17 27 23
4 6 5 5 3 3 2 1 3 4 2 18 23 23 20 19 17 16 19 15 13 16 17 14 13 17 23 23 21 19 17 16 15 14 11 11 12 12 12 11 11 9 13 13 13 15 22 18 23
3 11 8 8 7 4 2 5 5 2 2 19 18 19 19 20 19 19 23 22 20 21 21 16 12 15 20 21 20 17 14 15 14 13 13 13 14 14 11 11 11 12 14 14 16 18 17 17 18
4 4 4 2 9 6 4 6 6 9 5 16 17 18 14 13 9 10 4 7 30 27 23 19 13 13 18 20 18 13 8 12 11 11 11 13 11 9 8 12 12 14 14 15 17 15 8 5 6
4 2 2 3 5 4 6 9 5 10 16 16 17 13 13 12 12 12 10 8 10 29 29 22 15 13 15 17 18 13 12 13 12 11 9 9 8 9 10 10 13 13 15 19 13 7 2 4 3
2 3 6 4 6 5 3 8 10 25 16 18 18 14 15 16 15 13 11 7 3 14 28 25 17 14 17 18 17 15 13 14 15 15 13 10 9 10 11 11 12 13 17 12 8 10 3 3 4
1 4 1 6 6 9 10 10 8 22 21 22 19 19 19 19 16 14 13 9 3 13 27 25 20 19 20 19 16 17 15 15 18 16 14 13 12 11 12 12 10 10 7 5 2 3 2 5 7
3 3 4 8 11 4 7 8 15 18 27 24 21 20 22 21 19 18 16 11 6 9 25 28 25 23 25 25 21 20 17 17 19 18 15 14 13 14 13 10 5 3 3 4 1 3 3 6 7
6 4 4 7 3 8 7 10 5 13 26 26 23 16 23 23 21 17 14 11 8 10 21 31 29 26 25 27 25 23 20 19 18 15 17 16 16 15 10 6 4 2 5 5 6 6 7 7 6
5 3 3 5 5 4 8 9 11 14 16 16 20 15 27 26 21 17 15 13 10 12 21 34 32 30 27 25 25 23 21 20 17 17 17 15 15 11 7 5 4 6 8 9 9 9 8 9 11
8 6 7 11 9 6 4 10 11 8 12 21 21 19 30 28 24 19 15 12 8 13 22 35 34 30 27 22 20 19 17 18 18 17 16 15 12 9 7 6 8 8 8 9 9 8 7 7 9
9 11 7 9 1 2 2 5 6 7 13 19 19 21 32 35 30 24 20 16 11 18 27 34 32 29 25 21 19 17 18 18 18 20 17 13 10 7 7 7 7 7 7 7 6 5 8 11 12
14 10 12 8 3 4 4 6 6 7 10 7 23 25 37 38 33 28 24 19 16 23 26 29 27 25 22 21 17 17 19 19 18 16 14 12 9 9 8 7 6 6 5 6 9 11 9 11 13
8 9 9 5 3 3 2 3 6 8 8 10 11 24 39 41 35 30 22 17 19 25 27 27 24 24 21 17 16 18 17 14 14 16 13 13 10 9 8 6 5 5 6 7 7 7 7 7 8
7 4 4 3 3 7 8 8 14 7 8 6 6 26 35 36 32 26 21 18 18 23 25 25 24 21 17 17 18 17 17 16 15 15 15 12 11 9 8 6 6 6 6 6 5 3 4 5 6
7 9 0 2 3 11 12 8 22 4 9 10 13 25 34 37 35 29 25 22 22 21 21 22 22 21 19 18 18 18 17 14 12 12 12 12 10 9 7 6 6 6 6 6 4 4 4 4 4
15 15 6 9 5 10 10 10 9 14 24 19 30 40 39 39 36 31 26 26 25 22 22 22 22 21 21 21 19 19 17 14 11 10 10 9 8 6 6 6 5 7 7 7 7 7 7 7 7
8 11 12 5 3 3 4 7 7 5 10 8 22 30 37 41 38 33 28 28 26 23 21 21 22 23 23 22 21 20 18 17 15 11 10 8 8 9 8 8 9 9 10 9 9 9 9 10 10
13 7 5 2 5 5 5 6 8 6 9 7 13 28 36 40 39 32 28 28 26 22 22 21 20 23 26 24 25 23 21 17 14 13 13 12 12 13 13 13 14 15 15 14 13 12 11 11 12
5 9 5 5 7 8 1 7 8 11 10 14 17 32 38 43 42 36 30 28 26 23 23 23 23 25 25 25 24 23 22 19 17 16 16 17 16 15 16 17 17 17 17 15 15 15 15 15 14
23 24 25 11 6 9 4 15 4 8 12 18 24 27 28 38 41 35 29 29 28 26 26 27 27 27 25 23 22 21 22 20 19 19 18 18 19 20 19 17 16 15 15 16 17 18 18 18 19
Wind_Direction
318 283 307 335 52 60 286 268 289 279 51 84 85 96 114 79 120 186 152 168 168 177 177 174 178 178 174 173 171 169 166 161 156 142 126 118 111 102 97 89 83 83 86 93 98 99 100 101 105
338 273 297 10 87 53 283 274 110 133 118 101 87 93 63 74 119 147 157 176 192 185 179 176 177 177 175 175 176 174 172 167 164 156 144 136 121 105 93 85 81 78 82 92 100 108 111 111 114
339 274 309 93 107 169 230 250 181 154 138 122 110 74 74 82 134 153 172 165 172 183 182 177 175 174 177 177 178 179 176 173 170 167 158 150 135 122 108 95 80 71 74 84 98 110 121 125 124
321 314 124 91 238 255 219 253 256 139 77 96 115 75 81 79 172 190 162 163 175 186 182 177 176 173 176 179 179 180 179 177 176 174 170 164 150 143 133 125 98 72 69 73 86 99 122 139 136
317 253 53 41 266 280 298 275 206 80 86 99 108 98 80 78 175 166 164 166 174 183 182 180 178 177 178 179 179 181 183 181 178 177 180 181 174 178 182 201 216 258 324 28 43 63 132 168 190
271 118 63 228 274 271 291 62 89 92 106 102 94 101 103 118 173 163 172 171 176 188 182 183 183 183 184 183 183 185 186 185 181 183 190 192 195 202 224 249 270 286 291 305 308 298 301 284 282
156 89 195 245 251 295 256 43 71 107 122 65 126 89 141 144 167 176 186 189 191 178 188 190 193 190 191 190 190 190 190 191 188 191 199 201 209 219 231 261 276 282 284 288 288 285 284 301 302
264 104 85 248 247 245 329 86 91 63 87 122 130 156 169 164 172 176 188 200 205 191 180 194 204 202 199 198 195 197 196 197 198 202 207 212 221 229 240 258 278 286 290 289 269 258 274 277 290
233 70 193 256 200 227 28 102 69 112 139 134 160 157 158 160 171 184 192 198 208 212 216 213 213 212 206 206 202 201 203 203 205 210 214 221 230 238 243 251 259 266 259 252 259 269 295 286 285
148 121 217 226 190 48 42 129 149 181 221 102 128 138 150 166 178 188 201 206 214 219 213 214 221 216 209 208 207 208 209 209 213 217 218 223 231 238 239 243 241 247 272 274 275 275 290 289 272
201 194 214 251 170 107 37 294 299 182 221 166 151 153 164 177 191 205 214 233 233 231 217 212 214 209 210 209 209 212 214 216 220 223 228 230 232 236 237 237 247 275 289 287 288 291 285 308 309
234 239 217 193 194 156 149 333 323 254 200 164 154 158 174 193 206 224 215 225 233 231 220 214 198 201 209 209 210 218 224 227 225 233 233 230 232 239 248 258 270 273 281 289 297 306 305 310 320
203 246 192 151 175 208 227 237 240 263 221 171 164 164 174 182 178 162 140 235 232 232 224 214 186 184 204 202 193 191 215 206 203 206 214 218 232 249 256 262 273 276 286 305 317 307 302 313 158
315 260 298 236 203 238 206 245 222 240 229 191 184 187 174 188 213 230 264 303 221 222 223 213 187 183 186 188 196 189 192 184 200 205 214 226 240 251 253 263 269 274 293 306 308 279 266 176 170
231 281 338 253 241 233 221 284 228 244 235 205 195 201 186 193 213 224 240 253 336 212 212 209 188 180 187 194 202 200 210 220 217 221 220 229 257 252 246 254 258 275 296 303 273 234 225 193 219
257 75 85 279 212 239 163 256 250 253 224 190 191 203 192 196 207 212 218 244 179 194 206 202 189 187 195 203 206 204 211 220 221 223 225 235 245 243 248 247 268 285 301 302 163 187 224 240 235
333 221 199 303 214 175 165 244 250 270 195 190 204 210 206 190 201 205 207 229 223 193 203 198 195 195 198 204 205 200 203 205 206 215 230 238 240 249 244 263 257 256 261 205 193 254 235 231 240
209 209 232 234 257 201 187 224 256 202 191 198 205 204 184 184 194 199 201 218 216 199 202 200 200 202 202 207 210 210 209 218 227 238 244 240 244 241 256 250 264 222 175 192 219 252 271 276 271
189 197 243 267 248 200 218 228 244 216 205 206 212 205 176 183 190 196 203 223 241 216 201 203 204 205 208 208 211 213 218 225 222 226 242 229 230 238 227 232 221 172 184 202 229 248 250 271 281
254 261 262 285 246 180 213 245 255 250 220 213 218 224 185 181 183 190 198 210 224 210 200 203 206 209 212 218 220 221 224 224 222 229 232 223 223 217 216 203 196 201 213 220 220 229 244 259 270
232 225 235 229 302 293 255 273 236 240 229 242 241 222 193 192 190 190 192 197 221 209 199 201 205 209 213 216 215 211 209 215 220 224 217 212 209 219 215 209 205 212 218 224 216 224 271 270 266
223 199 231 232 267 237 160 267 256 228 244 253 249 217 196 195 192 193 191 194 214 203 198 206 211 215 213 211 210 222 221 219 224 218 214 209 212 214 218 205 191 190 201 219 253 268 258 252 254
221 184 199 169 162 339 190 288 244 200 230 242 227 203 198 197 192 193 192 201 210 211 206 208 211 214 212 210 212 217 213 216 213 212 214 206 220 217 204 203 207 220 239 234 229 239 249 257 260
177 79 54 62 113 255 198 205 246 190 211 241 194 193 190 193 188 189 190 199 207 209 208 210 213 205 204 201 207 209 209 211 213 215 208 218 219 212 209 213 224 219 227 241 253 272 283 281 279
156 128 238 254 203 242 175 203 244 246 219 201 187 183 188 188 186 187 189 194 198 195 194 197 198 199 193 200 202 203 203 210 219 215 216 220 217 222 229 229 229 230 264 265 272 280 300 304 300
193 183 176 182 199 246 183 233 239 214 225 222 196 190 190 192 191 189 191 194 196 198 195 194 196 194 186 197 200 201 201 211 212 202 212 216 218 212 227 221 228 270 278 263 286 305 314 305 299
193 197 188 102 350 50 230 285 301 210 230 198 186 180 187 192 193 189 190 195 197 200 199 195 194 192 191 193 192 197 207 217 215 218 224 219 226 231 240 252 262 278 279 273 281 284 284 284 281
198 149 159 139 186 247 230 248 230 203 209 186 178 190 189 190 193 190 195 195 199 202 201 194 194 195 193 196 195 199 210 214 225 227 232 240 242 242 248 256 265 270 270 264 263 270 278 283 285
133 188 188 187 181 204 253 253 211 200 195 188 199 195 187 192 195 191 195 198 202 202 199 189 188 189 191 193 196 201 208 216 223 233 238 245 243 236 246 253 255 253 261 263 265 278 283 286 287
201 201 196 204 210 226 181 250 248 221 195 195 201 197 195 191 191 190 197 196 197 201 195 192 191 191 195 202 206 213 217 221 226 237 240 236 244 256 262 258 250 260 268 268 270 279 281 287 289